This demonstration page uses our WeatherBlox Daily Observations layout. Learn more.

Left ArrowRight Arrow

Hourly Observations for November 27, 2019

Temp ( °F °C ) Dew Point ( °F °C ) Humidity (%) Winds ( mph kmh ) Pressure ( in mb ) Visibility ( mi km ) Precip ( " mm )
12:15 am 00:15 Clear 39 4 37 3 93 93 Calm 30.04 1017 10 16.0934 0 0
12:35 am 00:35 Clear 37 3 37 3 100 100 Calm 30.04 1017 10 16.0934 0 0
12:55 am 00:55 Clear 37 3 37 3 100 100 Calm 30.04 1017 10 16.0934 0 0
1:15 am 01:15 Clear 37 3 36 2 93 93 Calm 30.03 1017 10 16.0934 0 0
1:35 am 01:35 Clear 36 2 36 2 100 100 Calm 30.02 1017 10 16.0934 0 0
1:55 am 01:55 Clear 36 2 36 2 100 100 Calm 30.02 1017 10 16.0934 0 0
2:15 am 02:15 Clear 37 3 37 3 100 100 Calm 30.01 1016 10 16.0934 0 0
2:35 am 02:35 Clear 37 3 36 2 93 93 Calm 30.01 1016 10 16.0934 0 0
2:55 am 02:55 Clear 37 3 37 3 100 100 Calm 30 1016 10 16.0934 0 0
3:15 am 03:15 Clear 37 3 37 3 100 100 Calm 30 1016 10 16.0934 0 0
3:35 am 03:35 Clear 37 3 37 3 100 100 Calm 30 1016 10 16.0934 0 0
3:55 am 03:55 Clear 41 5 39 4 93 93 Calm 29.99 1016 10 16.0934 0 0
4:15 am 04:15 Partly Cloudy 41 5 39 4 93 93 Calm 29.98 1015 10 16.0934 0 0
4:35 am 04:35 Partly Cloudy 41 5 41 5 100 100 SE 5 7 29.97 1015 10 16.0934 0 0
4:55 am 04:55 Clear 43 6 41 5 93 93 SSE 3 6 29.96 1015 10 16.0934 0 0
5:15 am 05:15 Clear 43 6 41 5 93 93 Calm 29.96 1015 10 16.0934 0 0
5:35 am 05:35 Partly Cloudy 43 6 41 5 93 93 Calm 29.96 1015 10 16.0934 0 0
5:55 am 05:55 Mostly Cloudy 43 6 41 5 93 93 Calm 29.97 1015 10 16.0934 0 0
6:15 am 06:15 Cloudy 45 7 41 5 87 87 Calm 29.98 1015 10 16.0934 0 0
6:35 am 06:35 Cloudy 43 6 43 6 100 100 Calm 29.98 1015 10 16.0934 0 0
6:55 am 06:55 Cloudy 43 6 43 6 100 100 Calm 29.99 1016 10 16.0934 0 0
7:15 am 07:15 Cloudy 43 6 43 6 100 100 ESE 3 6 29.94 1014 10 16.0934 0 0
7:35 am 07:35 Cloudy 45 7 43 6 93 93 S 7 11 29.95 1014 10 16.0934 0 0
7:55 am 07:55 Cloudy 45 7 45 7 100 100 S 6 9 29.94 1014 10 16.0934 0 0
8:15 am 08:15 Partly Cloudy 45 7 45 7 100 100 Calm 29.94 1014 10 16.0934 0 0
8:35 am 08:35 Sunny 45 7 45 7 100 100 S 8 13 29.93 1014 10 16.0934 0 0
9:15 am 09:15 Partly Cloudy 46 8 45 7 93 93 S 5 7 29.93 1014 10 16.0934 0 0
9:35 am 09:35 Mostly Cloudy 46 8 46 8 100 100 SSE 9 15 29.9 1012 10 16.0934 0 0
9:55 am 09:55 Cloudy 46 8 46 8 100 100 S 13 20 29.89 1012 10 16.0934 0 0
10:15 am 10:15 Partly Cloudy 48 9 46 8 94 94 S 10 17 29.89 1012 10 16.0934 0 0
10:35 am 10:35 Sunny 50 10 46 8 88 88 S 9 15 29.88 1012 10 16.0934 0 0
10:55 am 10:55 Partly Cloudy 50 10 46 8 88 88 S 12 19 29.86 1011 10 16.0934 0 0
11:15 am 11:15 Mostly Cloudy 52 11 46 8 82 82 SSW 15 24 29.83 1010 10 16.0934 0 0
11:35 am 11:35 Partly Cloudy 52 11 46 8 82 82 SSW 17 28 29.82 1010 10 16.0934 0 0
11:55 am 11:55 Mostly Cloudy 52 11 46 8 82 82 SSW 18 30 29.8 1009 10 16.0934 0 0
12:15 pm 12:15 Cloudy 54 12 48 9 82 82 SSW 20 31 29.77 1008 10 16.0934 0 0
12:35 pm 12:35 Cloudy 54 12 48 9 82 82 SSW 18 30 29.76 1008 10 16.0934 0 0
12:55 pm 12:55 Cloudy 54 12 48 9 82 82 S 16 26 29.75 1008 10 16.0934 0 0
1:15 pm 13:15 Mostly Cloudy 54 12 48 9 82 82 SSW 22 35 29.72 1007 10 16.0934 0 0
1:35 pm 13:35 Mostly Cloudy 54 12 48 9 82 82 SSW 17 28 29.71 1006 10 16.0934 0 0
2:15 pm 14:15 Cloudy 54 12 50 10 88 88 SSW 15 24 29.69 1006 10 16.0934 0 0
2:35 pm 14:35 Cloudy 54 12 50 10 88 88 SSW 15 24 29.68 1005 10 16.0934 0 0
2:55 pm 14:55 Cloudy 54 12 50 10 88 88 SSW 17 28 29.67 1005 10 16.0934 0 0
3:15 pm 15:15 Cloudy 54 12 50 10 88 88 SSW 15 24 29.67 1005 10 16.0934 0 0
3:35 pm 15:35 Cloudy 55 13 52 11 88 88 SSW 21 33 29.66 1004 10 16.0934 0 0
3:55 pm 15:55 Mostly Cloudy 54 12 52 11 94 94 SSW 18 30 29.66 1005 10 16.0934 0 0
4:15 pm 16:15 Partly Cloudy 54 12 52 11 94 94 SSW 14 22 29.66 1005 10 16.0934 0 0
4:35 pm 16:35 Partly Cloudy 54 12 52 11 94 94 SSW 16 26 29.65 1004 10 16.0934 0 0
4:55 pm 16:55 Clear 54 12 50 10 88 88 SSW 13 20 29.65 1004 10 16.0934 0 0
5:35 pm 17:35 Partly Cloudy 54 12 50 10 88 88 SSW 10 17 29.65 1004 10 16.0934 0 0
5:55 pm 17:55 Clear 52 11 50 10 94 94 SW 7 11 29.66 1005 10 16.0934 0 0
6:15 pm 18:15 Clear 54 12 50 10 88 88 WSW 7 11 29.67 1005 10 16.0934 0 0
6:35 pm 18:35 Clear 54 12 50 10 88 88 WSW 9 15 29.68 1005 10 16.0934 0 0
6:55 pm 18:55 Clear 54 12 50 10 88 88 WSW 8 13 29.69 1006 10 16.0934 0 0
7:15 pm 19:15 Clear 52 11 50 10 94 94 W 8 13 29.7 1006 10 16.0934 0 0
7:35 pm 19:35 Clear 52 11 50 10 94 94 W 9 15 29.71 1006 10 16.0934 0 0
7:55 pm 19:55 Clear 54 12 45 7 72 72 W 21 33 29.72 1007 10 16.0934 0 0
8:15 pm 20:15 Clear 57 14 32 0 39 39 WNW 20 31 29.73 1007 10 16.0934 0 0
8:35 pm 20:35 Clear 57 14 32 0 39 39 WNW 24 39 29.75 1007 10 16.0934 0 0
8:55 pm 20:55 Clear 57 14 32 0 39 39 WNW 33 54 29.75 1007 10 16.0934 0 0
9:15 pm 21:15 Clear 55 13 32 0 41 41 WNW 25 41 29.77 1008 10 16.0934 0 0
9:35 pm 21:35 Clear 54 12 32 0 44 44 NW 20 31 29.79 1009 10 16.0934 0 0
9:55 pm 21:55 Clear 52 11 32 0 47 47 WNW 15 24 29.8 1009 10 16.0934 0 0
10:15 pm 22:15 Clear 52 11 32 0 47 47 WNW 25 41 29.81 1010 10 16.0934 0 0
10:35 pm 22:35 Clear 52 11 32 0 47 47 WNW 18 30 29.81 1010 10 16.0934 0 0
10:55 pm 22:55 Clear 52 11 32 0 47 47 WNW 16 26 29.82 1010 10 16.0934 0 0
11:15 pm 23:15 Clear 50 10 32 0 50 50 WNW 16 26 29.83 1010 10 16.0934 0 0
11:35 pm 23:35 Clear 50 10 32 0 50 50 NW 14 22 29.84 1010 10 16.0934 0 0

Powered by AerisWeather